STARLINK-32281, 60375

Orbit data source: Space-Track

STARLINK-32281, 60375 is a payload satellite owned by SpaceX/Seattle (US) in LEO that was launched on Sun, 04 Aug 2024 UTC via an FALCON 9 launch vehicle from the Air Force Western Test Range (AFWTR). Payload-class satellites include a variety of spacecraft equipped with specific instruments for various scientific and technological missions. These include communications satellites like Starlink; space stations such as the ISS; scientific satellites like the Hubble; Earth observation satellites from companies like Planet Labs, Umbra, and HawkEye 360; GPS; miniature CubeSats for education and research; and military/defense satellites.

Loading next visibility...
Identifier
60375, 2024-138W
Orbit
LEO
Country
Flag of USUS
Related business
Manufacturer
SpaceX/Seattle
Mission
Operational Commercial Communications
Bus & Motor
STARLINK V2M, Unknown motor
Mass
730 kg wet, ~700 kg dry
Launch date (UTC)
2024-08-04 (2 years ago)
Launch vehicle
FALCON 9
Launch site
Air Force Western Test Range (AFWTR)
Object type
Payload
Rocket body
Debris
Shape & HBR
Box + 2 Pan, 17.7 m
Radar Cross Section
33.884 m², Large (>1 m²)

Expand to show TLE details & history
Last TLE update: 13 hours ago

TLE from 13 hours ago
0 STARLINK-32281
1 60375U 24138W   26171.32042911  .00001866  00000-0  75103-4 0  9999
2 60375  53.1594 192.6935 0000875  89.7935 270.3166 15.30206833106245
Epoch: 2026-06-20T07:41Z
TLE epoch observation values (Epoch: 2026-06-20T07:41:25.075Z)
Latitude
-0°
Longitude
168.80228°
Altitude
476.091 km
Speed
7.629 km/s
True Right ascension
12h 50m 46s
True Declination
0° 00' 00"
Sunlit
Object was in daylight at epoch
Visualization orbit readout
Latitude
Unknown
Longitude
Unknown
Altitude
Unknown
Speed
Unknown
Apparent Right ascension
Unknown
Apparent Declination
Unknown
Sunlit
N/A
Visualization observer readout
Local Sidereal Time
07:19:02
Azimuth
Unknown
Elevation
Unknown
Doppler factor
Unknown
Orbital elements
Apogee altitude
476.051 km
Perigee altitude
474.852 km
Semi-major axis
6,853.588 km
Eccentricity
0.00009
Inclination
53.1594°
RAAN
192.6935°
Arg. of periapsis
89.7935°
True anomaly
270.30657°
Mean anomaly
270.3166°
Eccentric anomaly
270.31159°
Mean motion
3.82531 °/min
Orbital period
94.11 mins
BSTAR
0.000075103
Loading maneuver chart data...
Computing Atmospheric mass density...
Loading historical data...
Loading historical data...
Loading historical data...
Loading historical data...
Loading historical data...
Loading historical data...
Loading historical data...

Documentation

Showing up to 5 results
|